Regional Weather Roundup
Issued by NWS

Home | Current Version | Previous Version | Text Only | Print | Product List | Glossary On
Versions: 1 2 3 4 5 6 7 8 9 10 11 12 13 14 15 16 17 18 19 20 21 22 23 24 25 26 27
000
ASUS45 KTFX 231710
RWRMT
MONTANA REGIONAL WEATHER ROUNDUP
NATIONAL WEATHER SERVICE GREAT FALLS MT
1100 AM MDT MON APR 23 2018

NOTE: "FAIR" INDICATES FEW OR NO CLOUDS BELOW 12000 FEET WITH NO
SIGNIFICANT WEATHER AND/OR OBSTRUCTIONS TO VISIBILITY.

MTZ001>007-043-231800-
WEST OF THE DIVIDE

CITY           SKY/WX    TMP DP  RH WIND       PRES   REMARKS
KALISPELL      FAIR      51  21  30 E3        30.37R
MISSOULA       FAIR      50  26  39 NE5       30.34S
BUTTE          LGT SNOW  34  29  82 N5        30.30R
MULLAN PASS    FAIR      40  22  48 CALM      30.31R
ANACONDA         N/A     36  27  69 MISG      30.34R
DEER LODGE       N/A     39  25  56 N9        30.37R
HAMILTON         N/A     48  21  34 N10G16    30.32R
PLAINS           N/A     47  31  54 CALM      30.34F
RONAN            N/A     48  25  40 CALM      30.37R
$$

MTZ008-052>055-231800-
SOUTHWEST MONTANA

CITY           SKY/WX    TMP DP  RH WIND       PRES   REMARKS
BOZEMAN        LGT RAIN  38  34  85 N10       30.29R WCI  31
DILLON         FLURRIES  35  34  96 NW3       30.25R
ENNIS          LGT SNOW  34  32  93 N29G38    30.25R WCI  20
W YELLOWSTONE  SNOW      32  32 100 CALM      30.15R VSB 1/4
THREE FORKS      N/A     38  34  85 N13       30.26R WCI  30
TWIN BRIDGES     N/A     35  30  82 NW23      30.20R WCI  23
$$

MTZ009-010-012-014-046-048-049-054-231800-
EAST SLOPES AND CENTRAL MONTANA

CITY           SKY/WX    TMP DP  RH WIND       PRES   REMARKS
CUT BANK       FAIR      44  26  49 VRB7      30.42S
GREAT FALLS    CLOUDY    43  28  55 NE12      30.39S
HELENA         CLOUDY    40  32  73 N8        30.37R
CHOTEAU          N/A     45  27  49 NE13      30.42S
WHITE SULPHUR  FOG       32  32 100 NW16      30.30R VSB 1   WCI  21
$$

MTZ011-013-016-021-045-047-050-051-231800-
NORTH CENTRAL MONTANA

CITY           SKY/WX    TMP DP  RH WIND       PRES   REMARKS
HAVRE          FAIR      48  29  47 NE12      30.41R
LEWISTOWN      LGT SNOW  33  33 100 NW6       30.36R VSB 1   WCI  28
N BAR RANCH    MIX PCPN  34  32  93 NW9       30.35R WCI  26
CHINOOK          N/A     48  23  37 N9        30.41R
$$

MTZ017>020-022>027-061-062-231800-
NORTHEAST MONTANA

CITY           SKY/WX    TMP DP  RH WIND       PRES   REMARKS
GLASGOW        PTSUNNY   47  33  58 N10       30.35R
GLENDIVE       LGT RAIN  42  36  79 N20G28    30.30R
JORDAN           N/A     41  36  82 NE9       30.32S
MALTA          SUNNY     45  34  65 N15       30.37R
SIDNEY         FAIR      46  33  60 N16       30.31F
WOLF POINT     CLOUDY    48  34  58 N7        30.35R
PLENTYWOOD       N/A     45  34  65 N13       30.33R
POPLAR           N/A     45  34  65 N7        30.35S
SCOBEY           N/A     44  26  49 N13       30.30
$$

MTZ028>42-056>058-231800-
SOUTHCENTRAL AND SOUTHEAST MONTANA

CITY           SKY/WX    TMP DP  RH WIND       PRES   REMARKS
BAKER          CLOUDY    48  30  49 NE25G31   30.22R
BILLINGS       SNOW      32  32 100 N13       30.29R VSB 1/4 WCI  22
LIVINGSTON     SNOW      34  32  92 E16       30.28R VSB 1/2 WCI  24
MILES CITY     LGT RAIN  40  40 100 N22G32    30.25R
BIG TIMBER     FOG       32  32 100 NE8       30.33  VSB 1/2 WCI  25
EKALAKA          N/A     51  24  35 NE20      30.13R
FORSYTH          N/A     37  37 100 NE10      30.28R WCI  30
LAUREL         FOG       32  32 100 NW10      30.31R VSB 3/4 WCI  24
$$

REGIONAL REPORTS...DAKOTAS

CITY           SKY/WX    TMP DP  RH WIND       PRES   REMARKS
WILLISTON      CLOUDY    47  33  58 N13       30.32R
MINOT          PTSUNNY   52  33  48 NW14      30.26R
DICKINSON      CLOUDY    53  31  42 NE23      30.21S
BEACH          PTSUNNY   48  28  46 N22G28    30.28S
CROSBY         FAIR      46  37  71 NW15      30.32S
TIOGA          FAIR      45  37  76 N14G20    30.31S
BISMARCK       PTSUNNY   62  31  31 NE18      30.21R
GRAND FORKS    FAIR      57  38  48 N10       30.20R
FARGO          FAIR      59  43  55 VRB5      30.19R
BUFFALO SD       N/A     60  38  43 E23G33    30.05F
RAPID CITY     FAIR      59  42  53 SE10      30.09F
$$

REGIONAL REPORTS...WYOMING/IDAHO/WASHINGTON

CITY           SKY/WX    TMP DP  RH WIND       PRES   REMARKS
GILLETTE         N/A     54  41  61 NW13      30.06R
SHERIDAN       LGT RAIN  41  36  82 NW21G30   30.19R
BUFFALO WY     CLOUDY    44  31  60 N30G37    30.12R
CODY           FLURRIES  35  32  88 NW15G21   30.22R WCI  25
YELLOWSTONE LA   N/A     33  29  85 CALM      30.16R
IDAHO FALLS    PTSUNNY   42  34  73 SW14      30.19R
SALMON         CLOUDY    50  30  46 N15       30.23R
BOISE          FAIR      51  25  36 NW15      30.23F
SPOKANE        FAIR      49  27  42 N10       30.35S
$$

REGIONAL REPORTS...ALBERTA

CITY           SKY/WX    TMP DP  RH WIND       PRES   REMARKS
CALGARY        MOSUNNY   48  23  37 S10       30.38F
CARDSTON         N/A     46  25  42 SE5         N/A
EDMONTON       MOSUNNY   50  21  32 W10       30.37S
FORT MCMURRAY  SUNNY     46  27  46 NW8       30.28S
HIGH LEVEL     MOSUNNY   41  21  45 SE6       30.22F
LETHBRIDGE     MOSUNNY   46  25  42 VRB2      30.44R
LLOYDMINSTER   MOSUNNY   48  28  46 W14       30.34S
MEDICINE HAT   MOSUNNY   48  28  46 NW6       30.43R
ONEFOUR          N/A     46  25  42 NE5         N/A
PEACE RIVER    MOSUNNY   39  25  56 SW9       30.29S
PINCHER CREEK  SUNNY     45  25  45 S3        30.42S
$$

REGIONAL REPORTS...SASKATCHEWAN

CITY           SKY/WX    TMP DP  RH WIND       PRES   REMARKS
CORONACH         N/A     45  30  57 N15         N/A
CYPRESS HILLS    N/A     41  25  52 N6          N/A
ESTEVAN        PTSUNNY   46  34  61 W13G18    30.30S
MOOSE JAW        N/A     52  27  37 N16G22      N/A
PRINCE ALBERT  MOSUNNY   46  30  53 NW17G24   30.29R
REGINA         PTSUNNY   50  27  40 N20G28    30.33R
ROCKGLEN         N/A     43  30  61 N14G22      N/A
SASKATOON      MOSUNNY   50  23  34 NW18      30.33S
SWIFT CURRENT  SUNNY     46  27  46 NW13G21   30.37R
$$




USA.gov is the U.S. government's official web portal to all federal, state and local government web resources and services.